This is the latest recevied weather packets stored in our database for station/object CE1RLP-31. If no packets are shown the sender has not sent any weather packets the latest 10 day(s).
| Time | Temp. | Humidity | Pressure | Rain* | Wind** | Luminosity | Snow |
|---|---|---|---|---|---|---|---|
| 1777603054 | 5.56° C | 11% | 1098.5 hPa | - | - | - | - |
| 1777602154 | 6.11° C | 9% | 1098.4 hPa | - | - | - | - |
| 1777601254 | 6.11° C | 10% | 1098.5 hPa | - | - | - | - |
| 1777583253 | 12.22° C | 10% | 1097 hPa | - | - | - | - |
| 1777580553 | 12.78° C | 10% | 1096.8 hPa | - | - | - | - |
| 1777578753 | 13.33° C | 10% | 1096.8 hPa | - | - | - | - |
| 1777577853 | 13.89° C | 10% | 1096.6 hPa | - | - | - | - |
| 1777570652 | 16.67° C | 9% | 1097.5 hPa | - | - | - | - |
| 1777568852 | 17.22° C | 8% | 1097.6 hPa | - | - | - | - |
| 1777563453 | 15° C | 9% | 1098.2 hPa | - | - | - | - |
| 1777562553 | 14.44° C | 9% | 1098.2 hPa | - | - | - | - |
| 1777561653 | 13.89° C | 8% | 1098.2 hPa | - | - | - | - |
| 1777554452 | 9.44° C | 9% | 1097.6 hPa | - | - | - | - |
| 1777549054 | 6.11° C | 9% | 1096.8 hPa | - | - | - | - |
| 1777548151 | 5.56° C | 9% | 1096.7 hPa | - | - | - | - |
| 1777547251 | 5.56° C | 9% | 1096.6 hPa | - | - | - | - |
| 1777545451 | 5° C | 8% | 1096.4 hPa | - | - | - | - |
| 1777544551 | 5° C | 9% | 1096.2 hPa | - | - | - | - |
| 1777543651 | 5° C | 9% | 1096.1 hPa | - | - | - | - |
| 1777541852 | 5° C | 9% | 1096.1 hPa | - | - | - | - |
| 1777540952 | 5° C | 9% | 1096 hPa | - | - | - | - |
| 1777540052 | 5.56° C | 9% | 1095.9 hPa | - | - | - | - |
| 1777538252 | 5.56° C | 8% | 1096 hPa | - | - | - | - |
| 1777537352 | 5.56° C | 9% | 1095.9 hPa | - | - | - | - |
| 1777536452 | 5.56° C | 9% | 1095.9 hPa | - | - | - | - |
* Rain since midnight (hover to see other rain measurements)
** Current wind speed in m/s (hover to see current wind gust speed)